Flag for U.S.A. Weather past 2 weeks in Portland, Oregon, U.S.A.

Now
79 °F

Overcast.


Feels Like: 79 °F
Forecast: 65 / 75 °F
Wind: 7 mph from West

Location: Portland International Airport

Current Time: Aug 27, 2015 at 10:55:51 PM

Latest Report: Aug 27, 2015 at 9:53 PM


Visibility: 10 mi

Pressure: 29.97 "Hg

Humidity: 41%

Dew point: 53 °F

Location of PortlandLocation

Historic Weather in Portland — Graph

°F

Portland temperature yesterday

Maximum temperature yesterday: 89 °F (at 5:53 PM)
Minimum temperature yesterday: 56 °F (at 6:53 AM)
Average temperature yesterday: 72 °F

Past Weeks' High & Low Weather Summary

 TemperatureHumidityPressure
High96 °F (Aug 19, 4:53 PM)90% (Aug 16, 6:53 AM)30.26 "Hg (Aug 16, 6:53 AM)
Low55 °F (Aug 22, 6:53 AM)16% (Aug 25, 4:53 PM)29.79 "Hg (Aug 19, 5:53 PM)
Average71 °F55%30.01 "Hg
* Reported Aug 12 8:53 PM — Aug 27 8:53 PM, Portland, Weather by CustomWeather, © 2015

Note: Actual official high and low records may vary slightly from our data, if they occured in-between our weather recording intervals... More about our weather records

Advertising

Portland weather history for previous 24 hours

 ConditionsComfort  
Time TempWeatherWind HumidityBarometerVisibility
8:53 PM
Thu, Aug 27
80 °FBroken clouds.5 mph35%29.94 "Hg10 mi
7:53 PM82 °FBroken clouds.No wind29%29.93 "Hg10 mi
6:53 PM88 °FPartly sunny.No wind22%29.94 "Hg10 mi
5:53 PM88 °FPartly sunny.3 mph22%29.94 "Hg10 mi
4:53 PM88 °FBroken clouds.3 mph24%29.96 "Hg10 mi
3:53 PM85 °FPartly sunny.6 mph29%29.98 "Hg10 mi
2:53 PM84 °FPartly sunny.5 mph31%30.00 "Hg10 mi
1:53 PM82 °FPartly sunny.6 mph33%30.02 "Hg10 mi
12:53 PM79 °FPassing clouds.5 mph39%30.04 "Hg10 mi
11:53 AM75 °FScattered clouds.No wind47%30.06 "Hg10 mi
10:53 AM71 °FScattered clouds.6 mph57%30.07 "Hg10 mi
9:53 AM67 °FPassing clouds.5 mph68%30.08 "Hg10 mi
8:53 AM65 °FScattered clouds.No wind68%30.08 "Hg10 mi
7:53 AM63 °FBroken clouds.5 mph73%30.09 "Hg10 mi
6:53 AM60 °FPartly cloudy.3 mph78%30.08 "Hg10 mi
5:53 AM60 °FPassing clouds.No wind75%30.07 "Hg10 mi
4:53 AM61 °FPassing clouds.No wind70%30.06 "Hg10 mi
3:53 AM65 °FPassing clouds.No wind59%30.06 "Hg10 mi
2:53 AM66 °FClear.3 mph54%30.06 "Hg10 mi
1:53 AM66 °FPartly cloudy.5 mph54%30.04 "Hg10 mi
12:53 AM68 °FPassing clouds.3 mph55%30.04 "Hg10 mi
11:53 PM
Wed, Aug 26
70 °FPassing clouds.3 mph51%30.03 "Hg10 mi
10:53 PM73 °FPassing clouds.3 mph44%30.01 "Hg10 mi
Weather by CustomWeather, © 2015

See weather overviewHow to use our weather pages